200 serials | power mp3 cutter classic registration code

Date Name Success Rate
2011-09-08 10:56:11 FontLook v3.1 Registration Code 62%
2011-09-08 11:42:43 Nic O'Matic 1.6 Registration Code 50%
2011-09-08 11:42:43 Nic O'Matic v1.6 Registration Code 55%
2011-09-08 12:54:14 TimeSlips 10.5 enterprise - with registration code! 0%
2012-12-13 05:12:00 Registration Code For PDFZilla Giveaway 0%
2012-12-13 05:12:00 Registration code:-826510-16101-266644 71%
2009-10-22 23:49:25 Power Mp3 Cutter 33%
2009-10-17 06:30:14 Power MP3 Cutter Joiner 1.01-NEC 0%
2009-10-17 06:30:14 Power MP3 Cutter Joiner V1.00 0%
2009-10-22 23:49:25 Power Mp3 Cutter Joiner 0%
2009-10-22 23:49:25 Power MP3 Cutter Joiner 1.00 0%
2009-10-22 23:49:25 Power MP3 Cutter Joiner 1.01 0%
2009-10-22 23:49:25 Power MP3 Cutter Joiner V1.12 0%
2011-09-08 12:35:39 Power MP3 Cutter Joiner 1.00 76%
2009-10-17 06:32:11 Sagasoft Power MP3 Cutter Joiner V1.01-CRD 0%
2009-10-17 06:32:11 Sagasoft Power MP3 Cutter Joiner V1.10-CRD 0%
2009-10-17 06:32:11 Sagasoft Power MP3 Cutter Joiner V1.11 57%
2009-10-17 06:32:11 Sagasoft Power MP3 Cutter Joiner V1.11-CRD 0%
2009-10-17 06:32:11 Sagasoft Power MP3 Cutter Joiner V1.12 60%
2009-10-17 06:32:11 Sagasoft Power MP3 Cutter Joiner V1.12-CRD 39%
2009-10-22 23:49:51 Sagasoft Power MP3 Cutter Joiner 1.01 57%
2009-10-22 23:49:51 Sagasoft Power MP3 Cutter Joiner 1.10 0%
2009-10-22 23:49:51 Sagasoft Power MP3 Cutter Joiner 1.11 0%
2009-10-22 23:49:51 Sagasoft Power MP3 Cutter Joiner V1.11 0%
2009-10-22 23:49:51 Sagasoft Power MP3 Cutter Joiner V1.12 84%
2011-09-08 12:45:02 Sagasoft Power MP3 Cutter Joiner Version: 1.11 55%
2011-09-08 10:42:09 DAS Registration 1.5.2 80%
2011-09-08 10:42:09 DAS Registration For CW5 0%
2011-09-08 10:42:09 DAS Registration v1.5.2 0%
2009-10-17 06:27:02 Lazarus Registration DLL V1.0 59%
2009-10-22 23:48:48 MemoriesonTV Registration 0%
2009-10-22 23:49:42 Registration Wizard 40%
2011-09-08 10:06:47 AnetHelpTool v4.02 Registration 52%
2011-09-08 10:22:13 ByeLines Registration 60%
2011-09-08 10:57:42 Ftgate Registration 63%
2011-09-08 11:15:16 Infodex v2.10 Registration 0%
2011-09-08 11:25:08 Lazarus Registration DLL v1.0 0%
2011-09-08 11:27:46 Mac Opener v3.0 Registration 57%
2011-09-08 11:32:59 mIRC v4.5+ Registration 60%
2011-09-08 11:32:59 mIRC v4.52 Registration 60%
2011-09-08 12:37:02 Quant v2.0 Registration 0%
2011-09-08 12:41:14 Registration Suite 1.0 60%
2011-09-08 12:41:14 Registration Suite v1.0 60%
2011-09-08 12:41:14 Registration Wizard Pro 5.01 46%
2011-09-08 12:41:14 Registration Wizard Pro v5.01 60%
2011-09-08 13:18:59 WinHacker 95 v2.02 Registration 57%
2012-12-13 05:12:00 Registration Key : 526EFEF086E09600449E667EA2DAE8E2E6D642BC 83%
2009-10-22 23:27:21 Ardamax Keylogger 2.9 Registration 56%
2009-10-22 23:48:49 Microsoft Registration Hacker - 39%
2009-10-22 23:49:57 SoudForge ALL (No Registration Requiered) 0%
2009-10-22 23:50:26 Valve's Registration Armor Key-Gen 60%
2011-09-08 10:21:42 Browserola v1.01 Temp. Registration 0%
2011-09-08 11:31:51 Microsoft Registration Hacker 0%
2011-09-08 11:31:51 Microsoft Registration Hacker - 0%
2011-09-08 11:31:51 Microsoft Registration HackerMSREGHACK 0%
2011-09-08 11:32:07 Microstation v5.xx.xx & 95 FULL REGISTRATION 48%
2011-09-08 12:34:57 PolyTrans V1.2E Registration Activator CD-Key 62%
2011-09-08 12:34:57 PolyView v2.9b16 Registration 0%
2011-09-08 12:54:09 Time Registration (German) 1.10 0%
2011-09-08 12:59:30 Super Collapse Registration 100%
2011-09-08 13:23:15 Yipe! II for Windows Registration #154 0%
2012-12-13 08:49:53 Softwarenetz Time Registration v1.10 0%
2012-12-13 08:49:56 Softwarenetz Time Registration v1.14 0%
2012-12-13 15:34:10 Valve's Registration Armor Key-Gen 0%
2009-10-22 23:48:17 Internet Download Manager Registration 50%
2011-09-08 10:25:56 Cheyenne Bitware V4.0 Registration Number 60%
2011-09-08 11:31:51 Microsoft Registration Hacker MSREGHACK 80%
2011-09-08 11:31:51 Microsoft Visual Basic 5 registration cd key 72%
2012-12-12 08:07:32 Download avast 5.0.667 Antivirus registration 0%
2012-12-13 05:12:00 Registration key for x-3gp-video-converter-38540 54%
2012-12-13 13:12:40 Total Image Converter Registration Key 57%
2011-09-08 11:30:16 MediaBlaze 98 v1.01 Win95/NT User: delphic Registration 0%
2009-10-22 23:49:02 Norton Internet Security 2005 Registration Guide 0%
2011-09-08 09:58:40 Acoustica Mixcraft v1.10 Build 15 Registration Info by MaBi 60%
2012-12-12 19:40:26 Microsoft Visual Basic 2008 Express Edition Registration key 20%
2009-10-22 23:50:26 Vcd Cutter 4.0 80%
2009-10-22 23:50:26 VCD Cutter 4.04 60%
2009-10-22 23:50:26 Vcd Cutter V 4.03 0%
2011-09-08 10:53:33 F-Cutter 1.51 0%
2011-09-08 10:53:33 F-Cutter 1.60 60%
2011-09-08 10:53:33 F-Cutter v1.51 0%
2011-09-08 10:53:33 F-Cutter v1.60 0%
2011-09-08 11:34:07 MP3 Cutter 1.2 100%
2011-09-08 11:34:07 MP3 Cutter 1.6 98%
2011-09-08 11:34:07 MP3 Cutter v1.2 0%
2011-09-08 11:34:07 MP3 Cutter v1.6 90%
2011-09-08 12:33:30 Pic Cutter 1.0 0%
2011-09-08 12:33:30 Pic Cutter v1.0 0%
2011-09-08 12:33:30 Pic Cutter v1.00.013 0%
2011-09-08 13:11:23 vcd cutter 4 0%
2011-09-08 13:11:23 VCD Cutter Pro 4.15 57%
2011-09-08 13:11:23 Vcd Cutter V v4.03 33%
2011-09-08 13:11:23 VCD Cutter v4.04 67%
2012-12-12 20:45:18 Mp3 cutter 37%
2012-12-12 20:48:37 Mp3 WMA cutter 42%
2009-10-17 06:28:04 MP3 Cutter Joiner V1.03 95%
2009-10-17 06:28:04 MP3 Cutter Joiner V1.05 0%
2009-10-17 06:28:04 MP3 Cutter Joiner V1.06 36%
2009-10-17 06:28:04 MP3 Cutter Joiner V1.07 0%
2009-10-17 06:28:04 MP3 Cutter Joiner V1.08 40%
2009-10-17 06:28:04 MP3 Cutter Joiner V1.17 0%
2009-10-22 23:47:51 File Cutter V1.4b 0%
2009-10-22 23:48:07 HiFi MP3.WMA Cutter 2.00 0%
2009-10-22 23:48:51 MP3 Cutter Joiner 0%
2009-10-22 23:48:51 MP3 Cutter Joiner 1.00 0%
2009-10-22 23:48:51 MP3 Cutter Joiner 1.04 100%
2009-10-22 23:48:51 MP3 Cutter Joiner 1.05 0%
2009-10-22 23:48:51 MP3 Cutter Joiner 1.06 20%
2009-10-22 23:48:51 MP3 Cutter Joiner 1.07 8%
2009-10-22 23:48:51 MP3 Cutter Joiner 1.08 0%
2009-10-22 23:48:51 MP3 Cutter Joiner 1.17 55%
2009-10-22 23:48:51 Mp3 Cutter Joiner 3.0 39%
2009-10-22 23:49:51 Saga Mp3 Cutter 0%
2009-10-22 23:50:26 Vcd Cutter V4.03 For Win98/nt 0%
2011-09-08 10:05:35 All Free MP3 Cutter 2.1.5 53%
2011-09-08 10:13:06 AVI MPEG Cutter v1.0 0%
2011-09-08 10:28:50 Cookie Cutter PC 2.46 0%
2011-09-08 10:28:50 Cookie Cutter PC 2.53 0%
2011-09-08 10:28:50 Cookie Cutter PC v2.46 0%
2011-09-08 10:28:50 Cookie Cutter PC v2.53 0%
2011-09-08 10:33:09 Cutter-Joiner 2.1 100%
2011-09-08 10:33:09 Cutter-Joiner v2.1 54%
2011-09-08 10:54:21 File Cutter 1.3 80%
2011-09-08 10:54:21 File Cutter 1.4 0%
2011-09-08 10:54:21 File Cutter 1.4a 0%
2011-09-08 10:54:21 File Cutter 1.4b 0%
2011-09-08 10:54:21 File Cutter v1.3 0%
2011-09-08 10:54:21 File Cutter v1.4 0%
2011-09-08 10:54:21 File Cutter v1.4a 0%
2011-09-08 10:54:21 File Cutter v1.4b 0%
2011-09-08 11:14:18 Image Cutter 1.1.0.33 0%
2011-09-08 11:14:18 Image Cutter v1.1.0.33 0%
2011-09-08 11:34:07 MP3 Cutter Joiner 0%
2011-09-08 11:34:07 MP3 Cutter Joiner 1.00 0%
2011-09-08 11:34:07 MP3 Cutter Joiner 1.02 40%
2011-09-08 11:34:07 MP3 Cutter Joiner 1.03 0%
2011-09-08 11:34:07 MP3 Cutter Joiner 1.05 0%
2011-09-08 11:34:07 MP3 Cutter Joiner 1.06 0%
2011-09-08 11:34:07 MP3 Cutter Joiner 1.07 0%
2011-09-08 11:34:07 MP3 Cutter Joiner 1.08 30%
2011-09-08 11:34:07 MP3 Cutter Joiner 1.17 0%
2011-09-08 11:34:07 MP3 Cutter Joiner v1.00 0%
2011-09-08 11:34:07 MP3 Cutter Joiner v1.02 0%
2011-09-08 11:34:07 MP3 Cutter Joiner v1.03 0%
2011-09-08 11:34:07 MP3 Cutter Joiner v1.05 0%
2011-09-08 11:34:07 MP3 Cutter Joiner v1.06 0%
2011-09-08 11:34:07 MP3 Cutter Joiner v1.07 0%
2011-09-08 11:34:07 MP3 Cutter Joiner v1.08 0%
2011-09-08 11:34:07 MP3 Cutter Joiner v1.17 0%
2011-09-08 12:30:20 Phelios Cutter 1.2 0%
2011-09-08 12:30:20 Phelios Cutter 1.3 0%
2011-09-08 12:30:20 Phelios Cutter v1.3 by FFF 0%
2011-09-08 12:45:02 Saga MP3 Cutter 1.00 0%
2012-12-12 00:01:04 Adrosoft AD MP3.Cutter v1.1 0%
2012-12-12 00:01:06 Adrosoft AD MP3.Cutter v1.2 0%
2012-12-12 00:49:52 All Free MP3.Cutter v2.1.5 20%
2012-12-12 20:45:36 MP3 Cutter Joiner 2.00.3 45%
2009-10-17 06:19:00 AudioToolsFactory MP3 Cutter Joiner V2.20-CRD 49%
2009-10-17 06:20:49 Crystal MP3 Cutter Joiner V2.00-CRD 52%
2009-10-17 06:24:25 HiFi MP3 WMA Cutter 2.00 By AT4RE 0%
2009-10-17 06:24:25 Hifi-Soft MP3 WMA Cutter V1.00 0%
2009-10-17 06:24:25 HiFi-Soft MP3 WMA Cutter V1.1 0%
2009-10-17 06:24:26 HiFi-Soft MP3 WMA Cutter V2.00 0%
2009-10-22 23:45:56 Crystal MP3 Cutter Joiner V2.00 0%
2009-10-22 23:47:39 Ease Audio Cutter V1.20 48%
2009-10-22 23:48:07 Hifi-Soft MP3 WMA Cutter V1.00-DVT 0%
2009-10-22 23:48:07 HiFi-Soft MP3.WMA Cutter V2.00 0%
2009-10-22 23:48:59 Naturpic Video Cutter V5.0 63%
2009-10-22 23:49:51 Sagasoft Saga MP3 Cutter V1.00 0%
2009-10-22 23:49:53 SID Video Cutter And Splitter 1.2.0.0 0%
2009-10-22 23:50:46 Xilisoft Video Cutter 1.xx 75%
2011-09-08 10:09:51 Audio File Cutter 1.20 100%
2011-09-08 10:28:50 Cookie Cutter PC v2.46 Win95/NT 0%
2011-09-08 10:32:33 Crystal MP3 Cutter Joiner 2.00 0%
2011-09-08 10:54:21 File Cutter v1.4 by LasH 0%
2011-09-08 10:54:21 File Cutter v1.4b by Bush Jr 0%
2011-09-08 11:29:58 Mazepath Pic Cutter 1.00.0013 0%
2011-09-08 11:29:58 Mazepath Pic Cutter v1.00.0013 0%
2011-09-08 12:45:02 Saga MP3 Cutter Joiner 1.12 49%
2011-09-08 12:47:32 SID Video Cutter and Splitter 1.2.0.0 0%
2011-09-08 13:20:13 Witcobber AVI MPEG Cutter v1.0 0%
2012-12-12 00:34:30 AimOne MP4 Cutter & Joiner 2.21 25%
2012-12-12 11:31:35 FameRing Smart Cutter for DV and DVB v1.2.2 0%
2012-12-12 11:31:38 FameRing Smart Cutter for DV and DVB v1.3.2 0%
2012-12-12 21:25:57 Naturpic Video Cutter v5.20 20%
2009-10-17 06:34:51 Video Cutter And Splitter In Depth V1.2.0.0 20%
2009-10-22 23:48:07 HiFi Video To Audio Cutter 2.00 0%
2009-10-22 23:48:59 Naturpic Audio File Cutter V3.20 0%
2009-10-22 23:48:59 Naturpic Audio File Cutter V3.40 90%
2009-10-22 23:50:46 Xilisoft Video Cutter 1.0.26.0125. 20%
2009-10-22 23:50:46 Xilisoft Video Cutter V1.0.28.0523 0%
2011-09-08 10:42:09 Data File Join Cutter 1.x 0%
2011-09-08 11:15:02 ImTOO Video Cutter 1.0.28.0523 20%
2011-09-08 11:15:02 ImTOO Video Cutter 1.0.34.0605 75%
2011-09-08 13:11:43 Video Cutter & Splitter In Depth 1.2 0%
2011-09-08 13:11:43 Video Cutter & Splitter In Depth 1.2.0.0 90%
2011-09-08 13:11:43 Video Cutter & Splitter In Depth v1.2 0%
2011-09-08 13:22:46 Xilisoft Video Cutter 1.0.28:0523 0%
2011-09-08 13:22:46 Xilisoft Video Cutter 1.0.34.1225 0%
2012-12-12 15:25:59 ImTOO Video Cutter v1.0.34.0605 48%